Location: Eitze
(52.9840°N, 9.6894°E)
Time: 21:30:22
(UTC+00:00)

Cosmos 1934 Rocket - Pass Details

Date: 19 May 2025
Orbit: 938 x 997 km, 83.0° (Epoch: 15 June)

Event Time Altitude Azimuth Distance (km) Brightness Sun altitude
Rises 21:22:21 0° 351° (N) 3,664 8.5 -12.9°
Reaches altitude 10° 21:24:57 10° 357° (N) 2,723 7.5 -13.1°
Maximum altitude 21:31:01 50° 72° (ENE) 1,235 4.5 -13.5°
Enters shadow 21:35:33 18° 141° (SE) 2,208 5.3 -13.8°
